TimeEST,TemperatureF,Dew PointF,Humidity,Sea Level PressureIn,VisibilityMPH,Wind Direction,Wind SpeedMPH,Gust SpeedMPH,PrecipitationIn,Events,Conditions,WindDirDegrees,DateUTC
12:15 AM,64.4,62.6,94,29.79,10.0,SSE,3.5,-,N/A,,Clear,160,2012-12-11 05:15:00
12:35 AM,64.4,64.4,100,29.79,10.0,SSE,4.6,-,N/A,,Clear,160,2012-12-11 05:35:00
12:55 AM,64.4,64.4,100,29.78,10.0,South,3.5,-,N/A,,Clear,180,2012-12-11 05:55:00
1:15 AM,64.4,64.4,100,29.79,10.0,South,4.6,-,N/A,,Clear,180,2012-12-11 06:15:00
1:35 AM,64.4,64.4,100,29.79,10.0,South,4.6,-,N/A,,Clear,170,2012-12-11 06:35:00
1:55 AM,66.2,66.2,100,29.80,10.0,South,4.6,-,N/A,,Clear,180,2012-12-11 06:55:00
2:15 AM,66.2,66.2,100,29.79,10.0,SSE,3.5,-,N/A,,Clear,160,2012-12-11 07:15:00
2:35 AM,66.2,66.2,100,29.80,10.0,South,3.5,-,N/A,,Clear,170,2012-12-11 07:35:00
2:55 AM,66.2,66.2,100,29.80,10.0,South,4.6,-,N/A,,Clear,180,2012-12-11 07:55:00
3:15 AM,66.2,66.2,100,29.80,10.0,South,3.5,-,N/A,,Clear,180,2012-12-11 08:15:00
3:35 AM,66.2,66.2,100,29.81,10.0,South,3.5,-,N/A,,Clear,190,2012-12-11 08:35:00
3:55 AM,64.4,64.4,100,29.81,10.0,Calm,Calm,-,N/A,,Clear,0,2012-12-11 08:55:00
4:15 AM,64.4,64.4,100,29.81,10.0,Calm,Calm,-,N/A,,Unknown,0,2012-12-11 09:15:00
4:35 AM,64.4,64.4,100,29.82,10.0,Calm,Calm,-,N/A,,Clear,0,2012-12-11 09:35:00
4:55 AM,64.4,64.4,100,29.82,7.0,Calm,Calm,-,N/A,,Clear,0,2012-12-11 09:55:00
5:15 AM,62.6,62.6,100,29.83,7.0,Calm,Calm,-,N/A,,Clear,0,2012-12-11 10:15:00
5:35 AM,62.6,62.6,100,29.84,7.0,Calm,Calm,-,N/A,,Clear,0,2012-12-11 10:35:00
5:55 AM,62.6,62.6,100,29.85,7.0,Calm,Calm,-,N/A,,Clear,0,2012-12-11 10:55:00
6:15 AM,62.6,62.6,100,29.86,7.0,Calm,Calm,-,N/A,,Clear,0,2012-12-11 11:15:00
6:35 AM,62.6,62.6,100,29.86,7.0,Calm,Calm,-,N/A,,Clear,0,2012-12-11 11:35:00
6:55 AM,62.6,62.6,100,29.88,7.0,Calm,Calm,-,N/A,,Clear,0,2012-12-11 11:55:00
7:15 AM,62.6,62.6,100,29.89,10.0,SW,3.5,-,N/A,,Clear,230,2012-12-11 12:15:00
7:35 AM,62.6,62.6,100,29.90,10.0,WSW,3.5,-,N/A,,Clear,240,2012-12-11 12:35:00
7:55 AM,62.6,62.6,100,29.91,10.0,Calm,Calm,-,N/A,,Clear,0,2012-12-11 12:55:00
8:15 AM,62.6,62.6,100,29.93,10.0,Calm,Calm,-,N/A,,Clear,0,2012-12-11 13:15:00
8:35 AM,64.4,64.4,100,29.93,10.0,Calm,Calm,-,N/A,,Clear,0,2012-12-11 13:35:00
8:55 AM,66.2,64.4,94,29.94,10.0,Calm,Calm,-,N/A,,Clear,0,2012-12-11 13:55:00
9:15 AM,66.2,64.4,94,29.94,10.0,West,6.9,-,N/A,,Clear,270,2012-12-11 14:15:00
9:35 AM,66.2,62.6,88,29.96,10.0,West,5.8,-,N/A,,Clear,270,2012-12-11 14:35:00
9:55 AM,66.2,62.6,88,29.97,10.0,Calm,Calm,-,N/A,,Clear,0,2012-12-11 14:55:00
10:15 AM,68.0,62.6,83,29.97,10.0,SSE,5.8,-,N/A,,Clear,160,2012-12-11 15:15:00
10:35 AM,68.0,62.6,83,29.97,10.0,Calm,Calm,-,N/A,,Clear,0,2012-12-11 15:35:00
10:55 AM,68.0,62.6,83,29.96,10.0,SW,3.5,-,N/A,,Clear,220,2012-12-11 15:55:00
11:15 AM,68.0,62.6,83,29.96,10.0,WSW,5.8,-,N/A,,Clear,240,2012-12-11 16:15:00
11:35 AM,68.0,62.6,83,29.97,10.0,WNW,9.2,-,N/A,,Clear,290,2012-12-11 16:35:00
11:55 AM,66.2,60.8,83,29.96,10.0,West,6.9,-,N/A,,Clear,270,2012-12-11 16:55:00
12:15 PM,66.2,60.8,83,29.97,10.0,West,6.9,-,N/A,,Clear,270,2012-12-11 17:15:00
12:35 PM,66.2,59.0,78,29.96,10.0,West,4.6,-,N/A,,Clear,260,2012-12-11 17:35:00
12:55 PM,64.4,59.0,83,29.96,10.0,West,5.8,-,N/A,,Clear,260,2012-12-11 17:55:00
1:15 PM,64.4,59.0,83,29.96,10.0,WSW,4.6,-,N/A,,Clear,250,2012-12-11 18:15:00
1:35 PM,66.2,59.0,78,29.95,10.0,West,5.8,-,N/A,,Clear,260,2012-12-11 18:35:00
1:55 PM,66.2,59.0,78,29.95,10.0,WSW,4.6,-,N/A,,Clear,240,2012-12-11 18:55:00
2:15 PM,66.2,59.0,78,29.96,10.0,SW,4.6,-,N/A,,Clear,220,2012-12-11 19:15:00
2:35 PM,66.2,59.0,78,29.96,10.0,West,4.6,-,N/A,,Clear,270,2012-12-11 19:35:00
2:55 PM,66.2,59.0,78,29.97,10.0,West,5.8,-,N/A,,Clear,260,2012-12-11 19:55:00
3:15 PM,66.2,59.0,78,29.96,10.0,SSW,3.5,-,N/A,,Clear,200,2012-12-11 20:15:00
3:35 PM,66.2,59.0,78,29.97,10.0,South,4.6,-,N/A,,Clear,180,2012-12-11 20:35:00
3:55 PM,64.4,59.0,83,29.97,10.0,South,3.5,-,N/A,,Clear,170,2012-12-11 20:55:00
4:15 PM,64.4,59.0,83,29.98,10.0,South,3.5,-,N/A,,Clear,190,2012-12-11 21:15:00
4:35 PM,64.4,59.0,83,29.98,10.0,Calm,Calm,-,N/A,,Clear,0,2012-12-11 21:35:00
4:55 PM,64.4,60.8,88,29.98,7.0,Calm,Calm,-,N/A,Rain,Light Rain,0,2012-12-11 21:55:00
5:15 PM,62.6,60.8,94,29.99,10.0,Calm,Calm,-,0.01,Rain,Light Rain,0,2012-12-11 22:15:00
5:55 PM,62.6,62.6,100,30.00,7.0,Calm,Calm,-,0.03,Rain,Light Rain,0,2012-12-11 22:55:00
6:15 PM,60.8,60.8,100,30.00,2.5,Calm,Calm,-,0.12,Rain,Light Rain,0,2012-12-11 23:15:00
6:35 PM,60.8,60.8,100,30.00,10.0,Calm,Calm,-,0.13,,Drizzle,0,2012-12-11 23:35:00
6:55 PM,60.8,60.8,100,30.00,7.0,NW,3.5,-,0.13,Rain,Light Rain,310,2012-12-11 23:55:00
7:15 PM,60.8,60.8,100,30.01,7.0,Calm,Calm,-,N/A,,Clear,0,2012-12-12 00:15:00
7:35 PM,60.8,60.8,100,30.03,7.0,Calm,Calm,-,N/A,,Clear,0,2012-12-12 00:35:00
7:55 PM,60.8,60.8,100,30.03,10.0,Calm,Calm,-,N/A,,Clear,0,2012-12-12 00:55:00
8:15 PM,60.8,60.8,100,30.04,10.0,Calm,Calm,-,N/A,,Clear,0,2012-12-12 01:15:00
8:35 PM,60.8,60.8,100,30.04,10.0,Calm,Calm,-,N/A,,Clear,0,2012-12-12 01:35:00
8:55 PM,60.8,60.8,100,30.04,10.0,Calm,Calm,-,N/A,,Clear,0,2012-12-12 01:55:00
9:15 PM,60.8,60.8,100,30.05,10.0,Calm,Calm,-,N/A,Rain,Light Rain,0,2012-12-12 02:15:00
9:35 PM,60.8,60.8,100,30.06,7.0,Calm,Calm,-,N/A,,Clear,0,2012-12-12 02:35:00
9:55 PM,60.8,60.8,100,30.06,10.0,Calm,Calm,-,N/A,,Clear,0,2012-12-12 02:55:00
10:15 PM,60.8,60.8,100,30.07,7.0,Calm,Calm,-,N/A,Rain,Rain,0,2012-12-12 03:15:00
10:35 PM,60.8,60.8,100,30.08,7.0,West,3.5,-,0.01,Rain,Rain,270,2012-12-12 03:35:00
10:55 PM,60.8,60.8,100,30.07,7.0,WNW,4.6,-,0.01,,Drizzle,300,2012-12-12 03:55:00
11:15 PM,59.0,59.0,100,30.06,10.0,Calm,Calm,-,N/A,,Light Drizzle,0,2012-12-12 04:15:00
11:35 PM,59.0,59.0,100,30.04,7.0,Calm,Calm,-,N/A,,Clear,0,2012-12-12 04:35:00
11:55 PM,59.0,59.0,100,30.06,7.0,North,3.5,-,N/A,,Clear,350,2012-12-12 04:55:00